Location: downtown San Diego
(32.7310°N, 117.1990°W)
Time: 06:19:52
(UTC-07:00)

CZ-4B DEB - Pass Details

Date: 19 May 2017
Orbit: 380 x 384 km, 97.4° (Epoch: 28 May)

Event Time Altitude Azimuth Distance (km) Brightness Sun altitude
Exits shadow 20:40:41 19° 122° (ESE) 987 4.0 -11.3°
Maximum altitude 20:42:09 29° 75° (ENE) 730 3.6 -11.6°
Drops below altitude 10° 20:44:48 10° 12° (NNE) 1,403 5.7 -12.0°
Sets 20:46:54 0° 1° (N) 2,259 6.9 -12.4°
